�������l�o���
Date,Time,MP-1(��Sv/h),MP-2(��Sv/h),MP-3(��Sv/h),MP-4(��Sv/h),MP-5(��Sv/h),MP-6(��Sv/h),MP-7(��Sv/h),MP-8(��Sv/h),����,����(m/s),���J
2018/03/16,00:00,0.868,1.451,0.905,1.688,1.148,0.491,0.857,0.823,�쐼,3.3,��
2018/03/16,00:10,0.868,1.450,0.903,1.689,1.149,0.491,0.857,0.823,��쐼,3.4,��
2018/03/16,00:20,0.868,1.450,0.903,1.688,1.147,0.491,0.857,0.823,�쐼,4.7,��
2018/03/16,00:30,0.870,1.452,0.905,1.688,1.146,0.490,0.857,0.823,�쐼,5.5,��
2018/03/16,00:40,0.868,1.451,0.905,1.688,1.144,0.490,0.856,0.820,�쐼,5.5,��
2018/03/16,00:50,0.867,1.452,0.905,1.686,1.147,0.490,0.857,0.823,�쐼,6.5,��
2018/03/16,01:00,0.870,1.450,0.907,1.687,1.147,0.491,0.855,0.822,�쐼,6.5,��
2018/03/16,01:10,0.871,1.451,0.905,1.690,1.147,0.490,0.857,0.822,��쐼,5.5,��
2018/03/16,01:20,0.869,1.451,0.904,1.688,1.147,0.490,0.856,0.822,�쐼,5.6,��
2018/03/16,01:30,0.868,1.452,0.905,1.688,1.147,0.490,0.858,0.825,��쐼,6.2,��
2018/03/16,01:40,0.870,1.451,0.903,1.690,1.149,0.490,0.857,0.823,��쐼,6.5,��
2018/03/16,01:50,0.870,1.452,0.904,1.689,1.146,0.491,0.857,0.825,��쐼,7.6,��
2018/03/16,02:00,0.868,1.452,0.904,1.689,1.148,0.490,0.857,0.824,��쐼,6.5,��
2018/03/16,02:10,0.870,1.451,0.905,1.690,1.148,0.490,0.857,0.825,��쐼,5.7,��
2018/03/16,02:20,0.870,1.450,0.906,1.687,1.146,0.490,0.856,0.823,��쐼,5.1,��
2018/03/16,02:30,0.870,1.448,0.907,1.689,1.147,0.489,0.856,0.822,�쐼,5.5,��
2018/03/16,02:40,0.870,1.451,0.906,1.688,1.149,0.490,0.858,0.826,�쐼,6.0,��
2018/03/16,02:50,0.868,1.452,0.905,1.690,1.148,0.489,0.858,0.823,�쐼,6.7,��
2018/03/16,03:00,0.870,1.453,0.907,1.690,1.145,0.491,0.858,0.823,�쐼,6.5,��
2018/03/16,03:10,0.868,1.450,0.905,1.692,1.146,0.489,0.858,0.824,�쐼,6.6,��
2018/03/16,03:20,0.868,1.452,0.905,1.689,1.145,0.490,0.858,0.823,�쐼,6.2,��
2018/03/16,03:30,0.869,1.455,0.907,1.691,1.145,0.490,0.855,0.825,���쐼,5.9,��
2018/03/16,03:40,0.868,1.453,0.907,1.686,1.144,0.490,0.857,0.823,���쐼,5.6,��
2018/03/16,03:50,0.869,1.452,0.905,1.690,1.145,0.490,0.858,0.823,��,5.4,��
2018/03/16,04:00,0.868,1.454,0.904,1.689,1.146,0.491,0.855,0.824,���쐼,5.1,��
2018/03/16,04:10,0.871,1.450,0.904,1.689,1.145,0.491,0.856,0.823,���쐼,4.2,��
2018/03/16,04:20,0.870,1.450,0.905,1.689,1.147,0.489,0.858,0.823,���쐼,3.7,��
2018/03/16,04:30,0.870,1.452,0.904,1.686,1.145,0.490,0.856,0.823,���쐼,2.3,��
2018/03/16,04:40,0.867,1.449,0.907,1.693,1.147,0.490,0.857,0.822,��쐼,2.0,��
2018/03/16,04:50,0.866,1.451,0.906,1.689,1.145,0.491,0.858,0.825,��,2.5,��
2018/03/16,05:00,0.868,1.449,0.906,1.687,1.146,0.491,0.856,0.823,��,2.3,��
2018/03/16,05:10,0.869,1.450,0.906,1.688,1.146,0.491,0.855,0.824,��쓌,1.5,��
2018/03/16,05:20,0.868,1.452,0.905,1.690,1.146,0.491,0.855,0.824,-,CALM,��
2018/03/16,05:30,0.868,1.450,0.904,1.688,1.145,0.491,0.856,0.824,�쐼,0.8,��
2018/03/16,05:40,0.868,1.450,0.906,1.688,1.147,0.491,0.858,0.823,��,1.5,��
2018/03/16,05:50,0.868,1.451,0.904,1.688,1.148,0.491,0.856,0.825,-,CALM,��
2018/03/16,06:00,0.868,1.448,0.907,1.687,1.145,0.491,0.856,0.822,���쓌,1.1,��
2018/03/16,06:10,0.868,1.450,0.905,1.690,1.147,0.489,0.856,0.824,��쓌,1.1,��
2018/03/16,06:20,0.867,1.450,0.903,1.688,1.147,0.490,0.855,0.823,��쐼,2.0,��
2018/03/16,06:30,0.868,1.451,0.904,1.688,1.145,0.490,0.856,0.822,��쐼,2.6,��
2018/03/16,06:40,0.869,1.450,0.905,1.689,1.149,0.489,0.856,0.824,��쐼,3.8,��
2018/03/16,06:50,0.868,1.450,0.905,1.691,1.147,0.490,0.857,0.823,�쐼,3.0,��
2018/03/16,07:00,0.868,1.450,0.905,1.688,1.148,0.492,0.857,0.824,���쐼,1.2,��
2018/03/16,07:10,0.868,1.451,0.906,1.690,1.146,0.491,0.857,0.824,�쐼,3.2,��
2018/03/16,07:20,0.870,1.451,0.904,1.688,1.147,0.491,0.857,0.823,���쐼,1.9,��
2018/03/16,07:30,0.867,1.450,0.903,1.688,1.146,0.490,0.854,0.823,�k��,1.1,��
2018/03/16,07:40,0.869,1.447,0.905,1.688,1.146,0.489,0.857,0.824,�k��,1.1,��
2018/03/16,07:50,0.868,1.449,0.904,1.689,1.150,0.491,0.856,0.825,�k��,1.5,��
2018/03/16,08:00,0.866,1.447,0.903,1.688,1.147,0.489,0.856,0.823,�k,2.6,��
2018/03/16,08:10,0.867,1.448,0.905,1.689,1.147,0.490,0.854,0.822,�k�k��,3.1,��
2018/03/16,08:20,0.869,1.448,0.905,1.687,1.146,0.489,0.856,0.825,�k��,6.5,��
2018/03/16,08:30,0.868,1.446,0.903,1.686,1.147,0.490,0.855,0.823,�k��,5.8,��
2018/03/16,08:40,0.869,1.450,0.900,1.689,1.149,0.489,0.854,0.824,�k�k��,5.1,��
2018/03/16,08:50,0.864,1.445,0.901,1.686,1.146,0.489,0.854,0.823,�k�k��,10.2,�L
2018/03/16,09:00,0.864,1.448,0.902,1.684,1.144,0.487,0.853,0.822,�k�k��,12.1,�L
2018/03/16,09:10,0.866,1.441,0.903,1.683,1.144,0.490,0.851,0.821,�k�k��,11.6,�L
2018/03/16,09:20,0.861,1.438,0.902,1.684,1.140,0.491,0.851,0.819,�k�k��,10.8,�L
2018/03/16,09:30,0.863,1.436,0.902,1.684,1.140,0.489,0.851,0.819,�k�k��,12.1,�L
2018/03/16,09:40,0.864,1.439,0.901,1.683,1.139,0.494,0.850,0.817,�k�k��,13.3,�L
2018/03/16,09:50,0.861,1.436,0.900,1.680,1.137,0.493,0.851,0.818,�k,12.4,�L
2018/03/16,10:00,0.860,1.432,0.899,1.679,1.136,0.493,0.849,0.817,�k,12.1,�L
2018/03/16,10:10,0.860,1.431,0.898,1.677,1.131,0.491,0.849,0.819,�k,13.1,�L
2018/03/16,10:20,0.858,1.431,0.899,1.676,1.133,0.489,0.848,0.819,�k�k��,10.6,�L
2018/03/16,10:30,0.855,1.429,0.896,1.676,1.130,0.487,0.849,0.820,�k�k��,11.3,�L
2018/03/16,10:40,0.853,1.429,0.894,1.674,1.132,0.489,0.849,0.819,�k,11.6,�L
2018/03/16,10:50,0.856,1.429,0.894,1.676,1.133,0.487,0.851,0.819,�k�k��,9.8,�L
2018/03/16,11:00,0.856,1.427,0.893,1.672,1.132,0.487,0.848,0.817,�k,9.5,�L
2018/03/16,11:10,0.856,1.428,0.893,1.673,1.132,0.486,0.849,0.818,�k,9.1,�L
2018/03/16,11:20,0.854,1.429,0.893,1.674,1.135,0.487,0.849,0.818,�k,8.1,�L
2018/03/16,11:30,0.858,1.431,0.892,1.674,1.132,0.485,0.850,0.818,�k,6.4,�L
2018/03/16,11:40,0.854,1.430,0.892,1.673,1.132,0.486,0.850,0.818,�k�k��,5.3,�L
2018/03/16,11:50,0.855,1.429,0.892,1.672,1.132,0.484,0.848,0.817,�k,5.6,�L
2018/03/16,12:00,0.855,1.430,0.892,1.675,1.130,0.484,0.851,0.817,�k,8.4,��
2018/03/16,12:10,0.855,1.428,0.893,1.673,1.131,0.484,0.849,0.819,�k�k��,10.5,�L
2018/03/16,12:20,0.853,1.431,0.892,1.673,1.130,0.482,0.848,0.819,�k,10.2,��
2018/03/16,12:30,0.854,1.431,0.892,1.674,1.130,0.483,0.849,0.817,�k,9.4,��
2018/03/16,12:40,0.853,1.428,0.891,1.675,1.130,0.482,0.849,0.819,�k,8.7,��
2018/03/16,12:50,0.852,1.431,0.892,1.672,1.130,0.482,0.849,0.819,�k,8.0,��
2018/03/16,13:00,0.854,1.428,0.891,1.673,1.131,0.483,0.849,0.818,�k�k��,7.4,��
2018/03/16,13:10,0.852,1.430,0.890,1.671,1.133,0.482,0.848,0.818,�k,8.0,��
2018/03/16,13:20,0.855,1.428,0.892,1.674,1.131,0.483,0.850,0.816,�k,6.1,��
2018/03/16,13:30,0.852,1.431,0.891,1.675,1.131,0.483,0.848,0.818,�k�k��,5.8,��
2018/03/16,13:40,0.854,1.432,0.891,1.672,1.132,0.482,0.850,0.819,�k�k��,6.3,��
2018/03/16,13:50,0.853,1.431,0.890,1.671,1.128,0.483,0.849,0.818,�k�k��,7.1,��
2018/03/16,14:00,0.855,1.429,0.894,1.672,1.133,0.483,0.849,0.819,�k�k��,5.9,��
2018/03/16,14:10,0.855,1.431,0.890,1.673,1.130,0.483,0.850,0.817,�k�k��,7.8,��
2018/03/16,14:20,0.854,1.429,0.892,1.672,1.133,0.484,0.851,0.820,�k�k��,8.4,��
2018/03/16,14:30,0.855,1.432,0.894,1.674,1.132,0.483,0.848,0.819,�k�k��,8.1,��
2018/03/16,14:40,0.854,1.429,0.893,1.673,1.133,0.481,0.850,0.818,�k�k��,8.7,��
2018/03/16,14:50,0.854,1.430,0.892,1.675,1.131,0.483,0.851,0.820,�k�k��,9.6,��
2018/03/16,15:00,0.854,1.435,0.892,1.677,1.134,0.483,0.850,0.818,�k�k��,8.8,��
2018/03/16,15:10,0.856,1.432,0.893,1.676,1.133,0.483,0.848,0.821,�k�k��,9.0,��
2018/03/16,15:20,0.856,1.432,0.892,1.676,1.134,0.481,0.849,0.819,�k�k��,8.9,��
2018/03/16,15:30,0.853,1.434,0.893,1.676,1.134,0.483,0.849,0.818,�k�k��,8.3,��
2018/03/16,15:40,0.857,1.434,0.891,1.677,1.133,0.481,0.848,0.819,�k�k��,8.3,��
2018/03/16,15:50,0.855,1.432,0.893,1.678,1.133,0.483,0.850,0.819,�k�k��,10.3,��
2018/03/16,16:00,0.855,1.433,0.891,1.679,1.135,0.481,0.847,0.817,�k�k��,11.6,��
2018/03/16,16:10,0.854,1.433,0.893,1.678,1.135,0.482,0.848,0.819,�k�k��,11.9,��
2018/03/16,16:20,0.855,1.435,0.892,1.680,1.135,0.483,0.851,0.817,�k��,12.8,��
2018/03/16,16:30,0.854,1.435,0.891,1.678,1.136,0.482,0.849,0.818,�k��,11.4,��
2018/03/16,16:40,0.854,1.439,0.893,1.681,1.135,0.483,0.847,0.817,�k�k��,10.2,��
2018/03/16,16:50,0.855,1.438,0.894,1.681,1.133,0.481,0.848,0.819,�k�k��,11.1,��
2018/03/16,17:00,0.855,1.437,0.894,1.678,1.133,0.483,0.847,0.819,�k�k��,10.2,��
2018/03/16,17:10,0.852,1.437,0.895,1.679,1.131,0.482,0.847,0.817,�k�k��,11.6,��
2018/03/16,17:20,0.852,1.437,0.893,1.678,1.130,0.482,0.849,0.818,�k��,12.1,��
2018/03/16,17:30,0.853,1.439,0.894,1.677,1.132,0.481,0.848,0.818,�k�k��,10.0,��
2018/03/16,17:40,0.853,1.436,0.895,1.679,1.134,0.481,0.848,0.818,�k�k��,8.8,��
2018/03/16,17:50,0.855,1.435,0.893,1.679,1.135,0.481,0.848,0.819,�k��,9.5,��
2018/03/16,18:00,0.852,1.438,0.894,1.682,1.134,0.483,0.848,0.818,�k�k��,6.8,��
2018/03/16,18:10,0.854,1.437,0.894,1.679,1.134,0.483,0.850,0.818,�k�k��,6.7,��
2018/03/16,18:20,0.853,1.437,0.894,1.684,1.134,0.482,0.851,0.817,�k�k��,6.5,��
2018/03/16,18:30,0.854,1.436,0.892,1.681,1.136,0.482,0.848,0.818,�k�k��,7.3,��
2018/03/16,18:40,0.854,1.439,0.893,1.678,1.134,0.482,0.849,0.818,�k�k��,7.7,��
2018/03/16,18:50,0.852,1.437,0.895,1.679,1.135,0.480,0.850,0.819,�k�k��,8.5,��
2018/03/16,19:00,0.852,1.435,0.894,1.677,1.133,0.481,0.847,0.818,�k�k��,6.8,��
2018/03/16,19:10,0.852,1.437,0.894,1.677,1.135,0.481,0.849,0.818,�k�k��,7.1,��
2018/03/16,19:20,0.853,1.439,0.894,1.678,1.134,0.482,0.848,0.819,�k�k��,9.9,��
2018/03/16,19:30,0.854,1.437,0.893,1.678,1.135,0.480,0.850,0.818,�k��,13.0,��
2018/03/16,19:40,0.853,1.438,0.893,1.681,1.133,0.481,0.850,0.818,�k��,11.3,��
2018/03/16,19:50,0.853,1.437,0.892,1.681,1.136,0.481,0.852,0.818,�k��,10.2,��
2018/03/16,20:00,0.852,1.438,0.891,1.680,1.133,0.482,0.850,0.819,�k�k��,8.4,��
2018/03/16,20:10,0.853,1.438,0.893,1.679,1.136,0.478,0.849,0.819,�k�k��,10.2,��
2018/03/16,20:20,0.851,1.441,0.892,1.681,1.133,0.479,0.849,0.818,�k�k��,10.5,��
2018/03/16,20:30,0.854,1.436,0.892,1.680,1.134,0.479,0.850,0.817,�k�k��,9.4,��
2018/03/16,20:40,0.852,1.439,0.890,1.681,1.132,0.480,0.848,0.819,�k�k��,6.4,��
2018/03/16,20:50,0.853,1.438,0.892,1.683,1.134,0.480,0.852,0.817,�k�k��,7.9,��
2018/03/16,21:00,0.851,1.439,0.891,1.679,1.132,0.480,0.849,0.818,�k�k��,9.4,��
2018/03/16,21:10,0.851,1.439,0.892,1.682,1.133,0.481,0.848,0.819,�k�k��,9.4,��
2018/03/16,21:20,0.849,1.438,0.893,1.680,1.133,0.481,0.849,0.818,�k��,12.4,��
2018/03/16,21:30,0.852,1.438,0.890,1.680,1.133,0.481,0.848,0.818,�k��,8.8,��
2018/03/16,21:40,0.851,1.437,0.891,1.679,1.136,0.479,0.849,0.818,�k�k��,8.7,��
2018/03/16,21:50,0.852,1.437,0.894,1.681,1.136,0.479,0.849,0.817,�k�k��,8.4,��
2018/03/16,22:00,0.851,1.439,0.891,1.679,1.134,0.478,0.848,0.818,�k�k��,6.8,��
2018/03/16,22:10,0.852,1.441,0.892,1.680,1.133,0.480,0.847,0.816,�k�k��,7.3,��
2018/03/16,22:20,0.852,1.437,0.891,1.683,1.135,0.479,0.849,0.819,�k�k��,6.8,��
2018/03/16,22:30,0.850,1.438,0.892,1.680,1.134,0.480,0.847,0.816,�k�k��,7.2,��
2018/03/16,22:40,0.851,1.440,0.892,1.682,1.133,0.480,0.851,0.817,�k�k��,9.2,��
2018/03/16,22:50,0.850,1.438,0.892,1.681,1.134,0.479,0.848,0.819,�k,7.5,��
2018/03/16,23:00,0.852,1.439,0.892,1.680,1.134,0.481,0.849,0.819,�k,6.4,��
2018/03/16,23:10,0.851,1.437,0.891,1.681,1.134,0.480,0.848,0.817,�k,6.2,��
2018/03/16,23:20,0.849,1.439,0.893,1.682,1.134,0.481,0.852,0.816,�k,5.6,��
2018/03/16,23:30,0.850,1.440,0.891,1.678,1.134,0.480,0.849,0.816,�k�k��,5.8,��
2018/03/16,23:40,0.850,1.438,0.891,1.679,1.136,0.481,0.848,0.818,�k�k��,6.5,��
2018/03/16,23:50,0.850,1.437,0.894,1.681,1.135,0.481,0.849,0.816,�k�k��,5.6,��
